Location: Unspecified
(52.4292°N, 19.3359°E)
Time: 15:19:56
(UTC+02:00)

Transit 2A Rocket - Pass Details

Date: 27 May 2024
Orbit: 583 x 910 km, 66.7° (Epoch: 14 June)

Event Time Altitude Azimuth Distance (km) Brightness Sun altitude
Rises 05:15:55 0° 249° (WSW) 3,078 7.4 4.9°
Reaches altitude 10° 05:18:19 10° 258° (WSW) 2,215 6.8 5.2°
Maximum altitude 05:23:02 37° 326° (NW) 1,185 6.0 5.9°
Drops below altitude 10° 05:28:12 10° 33° (NNE) 2,429 8.8 6.6°
Sets 05:30:57 0° 42° (NE) 3,415 9.8 6.9°
